User: anonymous   Login
Location: Black Rock Desert
(40.7548°N, 119.2364°W)
Time: 14:13:56
(UTC-08:00)
Language:

Cosmos 1340 Rocket - Orbit

View from above orbital plane
View from above orbital plane
View from above satellite
View from above satellite

Ground track
Ground track

The orbit data is extracted from the following two-line orbital elements,

1 13068U 82013B   15027.19757631  .00001011  00000-0  68960-4 0  6078
2 13068 081.2057 137.0362 0021467 313.3701 046.5733 15.05207710792221
Epoch (UTC): 27 January 2015 04:44:30
Eccentricity: 0.0021467
inclination: 81.2057°
perigee height: 536 km
apogee height: 566 km
right ascension of ascending node: 137.0362°
argument of perigee: 313.3701°
revolutions per day: 15.05207710
mean anomaly at epoch: 46.5733°
orbit number at epoch: 79222

The dashed part of the orbit path shows where the satellite is in the earth's shadow,  

DLR